Regional Weather Roundup
Issued by NWS Midland/Odessa, TX

Skip options and go directly to product.
Home | Oldest Version | Previous Version | Current Version | All | Text Only | Save Text | Print | Product List | Glossary On

Skip product version selection by date and time.   
124
ASUS44 KMAF 022010
RWRMAF
MIDLAND AREA WEATHER ROUNDUP
NATIONAL WEATHER SERVICE MIDLAND TX
300 PM CDT SUN AUG 02 2015

...IN SOUTHWEST TEXAS AND SOUTHEAST NEW MEXICO...

CITY           SKY/WX    TMP DP  RH WIND       PRES   REMARKS
ALPINE         MOSUNNY   83  60  46 W13       30.15S
ANDREWS        FAIR      94  55  26 S6        29.98F
ARTESIA        PTSUNNY   95  57  28 E12       29.97F
BIG SPRING     MOSUNNY   95  58  28 SE8       29.98F
CARLSBAD       PTSUNNY   95  59  30 NW20G32   29.95S THUNDER
DRYDEN           N/A    100  60  26 S14G20    29.93F HX 100
FORT STOCKTON  SUNNY     97  55  24 VRB3      29.97F
GUAD PASS      MOSUNNY   88  55  32 VRB6      30.15F
HOBBS          MOSUNNY   93  61  33 S10       30.00F
MARFA          MOSUNNY   88  54  31 SE5       30.12F
MIDLAND AIRPK  MOSUNNY  100  54  21 S9G16     29.97F
MIDLAND INTL   MOSUNNY   97  56  25 VRB5      29.96F
ODESSA         MOSUNNY   98  54  22 SW9       29.98F
PECOS          SUNNY    101  54  21 S3        29.92F
PRESIDIO       FAIR      97  56  25 CALM      29.94F
SEMINOLE       MOSUNNY   96  52  22 CALM      29.99F
SNYDER         MOSUNNY   94  63  35 SE10      29.97F
WINK           MOSUNNY  100  54  21 S8        29.93F
$$
...OTHER STATIONS IN TEXAS...

CITY           SKY/WX    TMP DP  RH WIND       PRES   REMARKS
ABILENE        SUNNY     97  61  30 MISG      29.95F
AMARILLO       PTSUNNY   87  67  51 SW7       30.02F
AUSTIN         MOSUNNY   96  54  24 VRB5      29.90F
BROWNSVILLE    PTSUNNY   84  74  71 S8        29.89F
CORPUS CHRISTI MOSUNNY   94  72  48 NE12      29.87F HX 102
DALLAS FTW     MOSUNNY   97  54  23 E8        29.92F
DEL RIO        SUNNY     99  60  27 SE12      29.88F
EL PASO        MOSUNNY   92  55  28 CALM      30.02F
HOUSTON INT    MOSUNNY   97  60  29 VRB5G17   29.88F
LUBBOCK        MOSUNNY   93  65  39 S12G21    30.00F
SAN ANGELO     SUNNY     97  60  29 VRB5      29.94F
SAN ANTONIO    MOSUNNY   95  61  32 VRB6      29.92F
WACO           SUNNY     98  59  27 SE8       29.91F
WICHITA FALLS  NOT AVBL
$$
...OTHER LOCATIONS IN NEW MEXICO...

CITY           SKY/WX    TMP DP  RH WIND       PRES   REMARKS
ALAMAGORDO     SUNNY     91  52  25 S7G17     30.04F
ALBUQUERQUE    PTSUNNY   82  53  36 SW5       30.14F
CANNON AFB     PTSUNNY   89  59  36 W12       30.04F
CLOVIS         MOSUNNY   90  57  33 W9        30.05F
HOLLOMAN AFB   MOSUNNY   93  53  25 S5        30.01F
ROSWELL        MOSUNNY   97  53  22 VRB3      29.97F
RUIDOSO          N/A    N/A N/A N/A MISG        N/A
SANTA FE       MOSUNNY   82  52  35 NW7       30.18F
TRUTH OR CONSE PTSUNNY   85  55  35 W24G30    30.08F
TUCUMCARI      SUNNY     89  60  37 VRB3      30.00F
$$

USA.gov is the U.S. government's official web portal to all federal, state and local government web resources and services.